Regional Weather Roundup
Issued by NWS

Home | Current Version | Previous Version | Graphics & Text | Print | Product List | Glossary On
Versions: 1 2 3 4 5 6 7 8 9 10 11 12 13 14 15 16 17 18 19 20 21 22 23 24 25 26 27 28 29 30 31 32 33 34 35 36 37 38 39 40 41 42 43 44 45 46 47 48 49 50
000
ASUS43 KDTX 300410
RWRMI
MICHIGAN HOURLY REGIONAL WEATHER ROUNDUP
NATIONAL WEATHER SERVICE DETROIT/PONTIAC MI
1200 AM EDT THU JUL 30 2015

NOTE: "FAIR" INDICATES FEW OR NO CLOUDS BELOW 12,000 FEET WITH NO
SIGNIFICANT WEATHER AND/OR OBSTRUCTION TO VISIBILITY.

MIZ047>049-052>055-059>063-066>070-074>076-081>083-300500-
SOUTHEAST LOWER MICHIGAN

CITY           SKY/WX    TMP DP  RH WIND       PRES   REMARKS
ADRIAN         CLEAR     67  60  78 W5        29.97S
ALMA           CLEAR     67  56  66 SW5       29.92S
ANN ARBOR      CLEAR     64  57  78 SW6       29.94S
BAD AXE        CLEAR     66  59  77 W5        29.88S
CARO           CLEAR     67  58  72 SW6       29.90S
DETROIT CITY   CLEAR     74  56  53 W7        29.92S
DETROIT        PTCLDY    73  58  59 W7        29.94S
FLINT          CLEAR     69  56  62 SW7       29.93S
GROSSE ILE     CLEAR     73  61  64 W5        29.93R
HILLSDALE      CLEAR     67  58  72 W7        29.99S
HOWELL         CLEAR     67  55  66 W5        29.95S

CITY           SKY/WX    TMP DP  RH WIND       PRES   REMARKS
JACKSON        CLEAR     65  58  78 W7        29.97S
LAMBERTVILLE   CLEAR     68  61  78 CALM      29.97S
LANSING        CLEAR     70  57  63 W9        29.95S
LAPEER         FAIR      69  57  66 W3        29.92R
MASON          CLEAR     67  56  67 W3        29.95F
MONROE         CLEAR     68  62  82 W5        29.94S
MT. CLEMENS    CLEAR     72  58  62 W7        29.90R
PONTIAC        PTCLDY    68  58  70 W7        29.93R
PORT HOPE        N/A     73  60  63 VRB5      29.85S
PORT HURON     CLEAR     66  61  82 SW3       29.91R
TRI CITIES     CLEAR     71  56  58 SW9       29.90S
MIDLAND        FAIR      69  55  60 SW6       29.89S
TROY           CLEAR     70  62  75 MISG      29.94S
SAGINAW HB     CLEAR     68  57  68 SW6       29.89S
$$
MIZ043>046-050>051-056>058-064>065-071>073-077>080-300500-
SOUTHWEST LOWER MICHIGAN

CITY           SKY/WX    TMP DP  RH WIND       PRES   REMARKS
BATTLE CREEK   CLEAR     70  56  61 W9        29.98S
BENTON HARBOR  CLEAR     74  61  63 W13       29.98F
BIG RAPIDS     CLEAR     69  53  57 W6        29.92S
COLDWATER      CLEAR     64  58  81 W3        29.99S
FREMONT        FAIR      69  54  58 W6        29.93S
HOLLAND        CLEAR     75  60  59 W10       29.96F
GRAND RAPIDS   CLEAR     70  58  65 W9        29.95S
IONIA          FAIR      68  57  69 SW7       29.93F
KALAMAZOO      CLEAR     70  56  61 W7        29.98S
LUDINGTON      PTCLDY    76  60  58 W7        29.92S
MARSHALL       CLEAR     65  57  75 W3        29.97S
MOUNT PLEASANT CLEAR     72  55  55 W7        29.90R
MUSKEGON       CLEAR     76  54  46 W13G22    29.93F
SOUTH HAVEN    CLEAR     74  61  62 W8        29.98S
$$
MIZ016>042-300500-
NORTHERN LOWER MICHIGAN

CITY           SKY/WX    TMP DP  RH WIND       PRES   REMARKS
ALPENA         CLEAR     73  53  49 VRB5      29.83R
BEAVER ISLAND  CLOUDY    71  57  63 SW3       29.82F
BELLAIRE       CLOUDY    75  59  57 CALM      29.86S
CADILLAC       MOCLDY    67  56  68 W5        29.91F
CHARLEVOIX     CLOUDY    72  60  66 SW3       29.87S
FRANKFORT      CLOUDY    74  62  66 NW8       29.88S
GAYLORD        CLOUDY    73  55  53 W5        29.87F
GRAYLING       PTCLDY    68  53  57 W3        29.89S
HARBOR SPRINGS CLOUDY    73  58  59 NW3       29.83F
HOUGHTON LAKE  CLEAR     72  56  57 W10       29.90R
MANISTEE       PTCLDY    73  55  53 W10       29.90S
OSCODA         CLEAR     70  54  55 SW7       29.84S
PELLSTON       PTCLDY    68  60  75 SW5       29.83S
ROGERS CITY    CLEAR     73  56  55 W6        29.82S
TRAVERSE CITY  MOCLDY    75  58  55 SW6       29.85F
$$
MIZ007>008-015-300500-
EASTERN UPPER MICHIGAN

CITY           SKY/WX    TMP DP  RH WIND       PRES   REMARKS
KINROSS        CLOUDY    66  55  68 CALM      29.80F
MACKINAC ISLAN CLOUDY    69  54  59 W3        29.81F
MUNISING         N/A     74  56  53 S6        29.78F
$$
MIZ004>006-011>014-085-300500-
CENTRAL UPPER MICHIGAN

CITY           SKY/WX    TMP DP  RH WIND       PRES   REMARKS
MANISTIQUE     RAIN      72  57  60 W6        29.82R
ESCANABA       CLOUDY    73  55  53 SW7       29.81F
MENOMINEE      CLEAR     72  54  53 W8        29.86S
SAWYER-GWINN   CLOUDY    70  55  58 SW7       29.81F
$$
MIZ001>003-009>011-084-300500-
WESTERN UPPER MICHIGAN

CITY           SKY/WX    TMP DP  RH WIND       PRES   REMARKS
IRON MOUNTAIN  CLOUDY    71  54  54 SW7       29.83F
HOUGHTON       MOCLDY    72  53  51 W21G32    29.73F
COPPER HARBOR    N/A     73  55  53 W9        29.69F
IRONWOOD       CLEAR     68  54  60 W12       29.81S
$$

ABBREVIATIONS USED IN REMARKS
   TC - TEMPERATURE IN CELSIUS
  WCI - WIND CHILL INDEX
   HX - HEAT INDEX
  VSB - VISIBILITY




USA.gov is the U.S. government's official web portal to all federal, state and local government web resources and services.